Location: Castiglione Fibocchi
(43.5333°N, 11.7667°E)
Time: 09:33:03
(UTC+00:00)

Cosmos 2285 Rocket - Pass Details

Date: 15 August 2020
Orbit: 970 x 999 km, 74.0° (Epoch: 18 September)

Event Time Altitude Azimuth Distance (km) Brightness Sun altitude
Exits shadow 02:11:02 36° 222° (SW) 1,491 4.4 -20.2°
Maximum altitude 02:13:40 67° 293° (WNW) 1,047 4.0 -19.9°
Drops below altitude 10° 02:19:57 10° 16° (NNE) 2,723 7.2 -19.0°
Sets 02:22:31 0° 19° (NNE) 3,675 8.1 -18.7°
